Time,TemperatureF,DewpointF,PressureIn,WindDirection,WindDirectionDegrees,WindSpeedMPH,WindSpeedGustMPH,Humidity,HourlyPrecipIn,Conditions,Clouds,dailyrainin,SoftwareType,DateUTC
2013-02-20 00:06:00,49.2,33.4,29.77,North,-999,-999.0,-999.0,54,-99.99,,,-99.99,,2013-02-20 07:06:00,
2013-02-20 00:12:00,49.0,33.5,29.77,North,-999,-999.0,-999.0,54,-99.99,,,-99.99,,2013-02-20 07:12:00,
2013-02-20 00:18:00,49.3,33.4,29.77,North,-999,-999.0,-999.0,53,-99.99,,,-99.99,,2013-02-20 07:18:00,
2013-02-20 00:24:00,49.4,33.5,29.77,North,-999,-999.0,-999.0,54,-99.99,,,-99.99,,2013-02-20 07:24:00,
2013-02-20 00:30:00,49.1,33.5,29.77,North,-999,-999.0,-999.0,54,-99.99,,,-99.99,,2013-02-20 07:30:00,
2013-02-20 00:36:00,49.4,32.8,29.77,North,-999,-999.0,-999.0,52,-99.99,,,-99.99,,2013-02-20 07:36:00,
2013-02-20 00:42:00,48.9,32.9,29.77,North,-999,-999.0,-999.0,53,-99.99,,,-99.99,,2013-02-20 07:42:00,
2013-02-20 00:48:00,49.0,33.0,29.77,North,-999,-999.0,-999.0,53,-99.99,,,-99.99,,2013-02-20 07:48:00,
2013-02-20 00:54:00,48.8,32.8,29.77,North,-999,-999.0,-999.0,53,-99.99,,,-99.99,,2013-02-20 07:54:00,
2013-02-20 01:00:00,49.4,32.8,29.77,North,-999,-999.0,-999.0,52,-99.99,,,-99.99,,2013-02-20 08:00:00,
2013-02-20 01:06:00,49.4,33.1,29.77,North,-999,-999.0,-999.0,53,-99.99,,,-99.99,,2013-02-20 08:06:00,
2013-02-20 01:12:00,49.6,32.9,29.77,North,-999,-999.0,-999.0,52,-99.99,,,-99.99,,2013-02-20 08:12:00,
2013-02-20 01:18:00,49.9,33.4,29.78,North,-999,-999.0,-999.0,53,-99.99,,,-99.99,,2013-02-20 08:18:00,
2013-02-20 01:24:00,49.2,34.5,29.79,North,-999,-999.0,-999.0,56,-99.99,,,-99.99,,2013-02-20 08:24:00,
2013-02-20 01:30:00,48.6,35.7,29.78,North,-999,-999.0,-999.0,60,-99.99,,,-99.99,,2013-02-20 08:30:00,
2013-02-20 01:36:00,48.4,36.7,29.79,North,-999,-999.0,-999.0,63,-99.99,,,-99.99,,2013-02-20 08:36:00,
2013-02-20 01:42:00,48.4,36.8,29.79,North,-999,-999.0,-999.0,64,-99.99,,,-99.99,,2013-02-20 08:42:00,
2013-02-20 01:48:00,48.3,37.1,29.78,North,-999,-999.0,-999.0,65,-99.99,,,-99.99,,2013-02-20 08:48:00,
2013-02-20 01:54:00,48.3,37.0,29.79,North,-999,-999.0,-999.0,65,-99.99,,,-99.99,,2013-02-20 08:54:00,
2013-02-20 02:00:00,48.3,36.8,29.78,North,-999,-999.0,-999.0,64,-99.99,,,-99.99,,2013-02-20 09:00:00,
2013-02-20 02:06:00,48.4,36.5,29.78,North,-999,-999.0,-999.0,63,-99.99,,,-99.99,,2013-02-20 09:06:00,
2013-02-20 02:12:00,48.3,36.3,29.79,North,-999,-999.0,-999.0,63,-99.99,,,-99.99,,2013-02-20 09:12:00,
2013-02-20 02:18:00,48.3,36.1,29.78,North,-999,-999.0,-999.0,62,-99.99,,,-99.99,,2013-02-20 09:18:00,
2013-02-20 02:24:00,48.3,36.1,29.78,North,-999,-999.0,-999.0,62,-99.99,,,-99.99,,2013-02-20 09:24:00,
2013-02-20 02:30:00,48.3,35.9,29.77,North,-999,-999.0,-999.0,62,-99.99,,,-99.99,,2013-02-20 09:30:00,
2013-02-20 02:36:00,48.2,35.7,29.78,North,-999,-999.0,-999.0,61,-99.99,,,-99.99,,2013-02-20 09:36:00,
2013-02-20 02:42:00,48.2,35.6,29.78,North,-999,-999.0,-999.0,61,-99.99,,,-99.99,,2013-02-20 09:42:00,
2013-02-20 02:48:00,48.1,35.5,29.77,North,-999,-999.0,-999.0,61,-99.99,,,-99.99,,2013-02-20 09:48:00,
2013-02-20 02:54:00,48.3,35.7,29.78,North,-999,-999.0,-999.0,61,-99.99,,,-99.99,,2013-02-20 09:54:00,
2013-02-20 03:00:00,48.5,36.3,29.78,North,-999,-999.0,-999.0,62,-99.99,,,-99.99,,2013-02-20 10:00:00,
2013-02-20 03:06:00,48.3,37.2,29.78,North,-999,-999.0,-999.0,65,-99.99,,,-99.99,,2013-02-20 10:06:00,
2013-02-20 03:12:00,47.8,36.8,29.77,North,-999,-999.0,-999.0,65,-99.99,,,-99.99,,2013-02-20 10:12:00,
2013-02-20 03:18:00,47.5,36.9,29.78,North,-999,-999.0,-999.0,66,-99.99,,,-99.99,,2013-02-20 10:18:00,
2013-02-20 03:24:00,47.4,36.8,29.78,North,-999,-999.0,-999.0,66,-99.99,,,-99.99,,2013-02-20 10:24:00,
2013-02-20 03:30:00,47.3,36.4,29.76,North,-999,-999.0,-999.0,65,-99.99,,,-99.99,,2013-02-20 10:30:00,
2013-02-20 03:36:00,47.0,36.2,29.76,North,-999,-999.0,-999.0,66,-99.99,,,-99.99,,2013-02-20 10:36:00,
2013-02-20 03:42:00,46.8,36.0,29.75,North,-999,-999.0,-999.0,65,-99.99,,,-99.99,,2013-02-20 10:42:00,
2013-02-20 03:48:00,46.8,36.1,29.75,North,-999,-999.0,-999.0,66,-99.99,,,-99.99,,2013-02-20 10:48:00,
2013-02-20 03:54:00,46.8,35.9,29.76,North,-999,-999.0,-999.0,65,-99.99,,,-99.99,,2013-02-20 10:54:00,
2013-02-20 04:00:00,46.6,35.9,29.76,North,-999,-999.0,-999.0,66,-99.99,,,-99.99,,2013-02-20 11:00:00,
2013-02-20 04:06:00,46.4,36.1,29.77,North,-999,-999.0,-999.0,67,-99.99,,,-99.99,,2013-02-20 11:06:00,
2013-02-20 04:12:00,46.4,36.1,29.78,North,-999,-999.0,-999.0,67,-99.99,,,-99.99,,2013-02-20 11:12:00,
2013-02-20 04:18:00,46.5,36.2,29.77,North,-999,-999.0,-999.0,67,-99.99,,,-99.99,,2013-02-20 11:18:00,
2013-02-20 04:24:00,46.6,36.1,29.77,North,-999,-999.0,-999.0,66,-99.99,,,-99.99,,2013-02-20 11:24:00,
2013-02-20 04:30:00,46.5,36.0,29.78,North,-999,-999.0,-999.0,66,-99.99,,,-99.99,,2013-02-20 11:30:00,
2013-02-20 04:36:00,46.3,35.9,29.78,North,-999,-999.0,-999.0,66,-99.99,,,-99.99,,2013-02-20 11:36:00,
2013-02-20 04:42:00,46.2,35.6,29.77,North,-999,-999.0,-999.0,66,-99.99,,,-99.99,,2013-02-20 11:42:00,
2013-02-20 04:48:00,45.9,35.5,29.77,North,-999,-999.0,-999.0,66,-99.99,,,-99.99,,2013-02-20 11:48:00,
2013-02-20 04:54:00,45.8,35.1,29.76,North,-999,-999.0,-999.0,66,-99.99,,,-99.99,,2013-02-20 11:54:00,
2013-02-20 05:00:00,46.0,35.1,29.76,North,-999,-999.0,-999.0,65,-99.99,,,-99.99,,2013-02-20 12:00:00,
2013-02-20 05:06:00,46.0,34.8,29.76,North,-999,-999.0,-999.0,64,-99.99,,,-99.99,,2013-02-20 12:06:00,
2013-02-20 05:12:00,46.0,34.5,29.77,North,-999,-999.0,-999.0,64,-99.99,,,-99.99,,2013-02-20 12:12:00,
2013-02-20 05:18:00,45.9,34.5,29.76,North,-999,-999.0,-999.0,64,-99.99,,,-99.99,,2013-02-20 12:18:00,
2013-02-20 05:24:00,45.7,34.8,29.76,North,-999,-999.0,-999.0,65,-99.99,,,-99.99,,2013-02-20 12:24:00,
2013-02-20 05:30:00,45.3,34.8,29.76,North,-999,-999.0,-999.0,66,-99.99,,,-99.99,,2013-02-20 12:30:00,
2013-02-20 05:36:00,45.1,34.6,29.76,North,-999,-999.0,-999.0,66,-99.99,,,-99.99,,2013-02-20 12:36:00,
2013-02-20 05:42:00,45.0,34.4,29.76,North,-999,-999.0,-999.0,66,-99.99,,,-99.99,,2013-02-20 12:42:00,
2013-02-20 05:48:00,44.9,34.4,29.76,North,-999,-999.0,-999.0,66,-99.99,,,-99.99,,2013-02-20 12:48:00,
2013-02-20 05:54:00,45.0,34.5,29.76,North,-999,-999.0,-999.0,66,-99.99,,,-99.99,,2013-02-20 12:54:00,
2013-02-20 06:00:00,45.1,34.5,29.75,North,-999,-999.0,-999.0,66,-99.99,,,-99.99,,2013-02-20 13:00:00,
2013-02-20 06:06:00,45.2,34.7,29.76,North,-999,-999.0,-999.0,66,-99.99,,,-99.99,,2013-02-20 13:06:00,
2013-02-20 06:12:00,45.2,34.9,29.76,North,-999,-999.0,-999.0,67,-99.99,,,-99.99,,2013-02-20 13:12:00,
2013-02-20 06:18:00,45.1,34.8,29.76,North,-999,-999.0,-999.0,67,-99.99,,,-99.99,,2013-02-20 13:18:00,
2013-02-20 06:24:00,44.9,34.7,29.76,North,-999,-999.0,-999.0,67,-99.99,,,-99.99,,2013-02-20 13:24:00,
2013-02-20 06:30:00,44.4,34.7,29.76,North,-999,-999.0,-999.0,68,-99.99,,,-99.99,,2013-02-20 13:30:00,
2013-02-20 06:36:00,44.2,34.6,29.75,North,-999,-999.0,-999.0,68,-99.99,,,-99.99,,2013-02-20 13:36:00,
2013-02-20 06:42:00,44.2,34.5,29.75,North,-999,-999.0,-999.0,68,-99.99,,,-99.99,,2013-02-20 13:42:00,
2013-02-20 06:48:00,43.8,34.4,29.75,North,-999,-999.0,-999.0,69,-99.99,,,-99.99,,2013-02-20 13:48:00,
2013-02-20 06:54:00,44.1,34.4,29.75,North,-999,-999.0,-999.0,68,-99.99,,,-99.99,,2013-02-20 13:54:00,
2013-02-20 07:00:00,44.3,34.4,29.76,North,-999,-999.0,-999.0,68,-99.99,,,-99.99,,2013-02-20 14:00:00,
2013-02-20 07:06:00,44.4,34.3,29.76,North,-999,-999.0,-999.0,67,-99.99,,,-99.99,,2013-02-20 14:06:00,
2013-02-20 07:12:00,44.6,34.2,29.76,North,-999,-999.0,-999.0,66,-99.99,,,-99.99,,2013-02-20 14:12:00,
2013-02-20 07:18:00,44.7,34.4,29.75,North,-999,-999.0,-999.0,66,-99.99,,,-99.99,,2013-02-20 14:18:00,
2013-02-20 07:24:00,44.7,34.3,29.75,North,-999,-999.0,-999.0,66,-99.99,,,-99.99,,2013-02-20 14:24:00,
2013-02-20 07:30:00,44.8,34.2,29.76,North,-999,-999.0,-999.0,66,-99.99,,,-99.99,,2013-02-20 14:30:00,
2013-02-20 07:36:00,45.3,34.1,29.76,North,-999,-999.0,-999.0,64,-99.99,,,-99.99,,2013-02-20 14:36:00,
2013-02-20 07:42:00,45.8,34.2,29.76,North,-999,-999.0,-999.0,63,-99.99,,,-99.99,,2013-02-20 14:42:00,
2013-02-20 07:48:00,46.1,34.2,29.76,North,-999,-999.0,-999.0,63,-99.99,,,-99.99,,2013-02-20 14:48:00,
2013-02-20 07:54:00,46.2,34.0,29.75,North,-999,-999.0,-999.0,62,-99.99,,,-99.99,,2013-02-20 14:54:00,
2013-02-20 08:00:00,46.2,33.7,29.76,North,-999,-999.0,-999.0,61,-99.99,,,-99.99,,2013-02-20 15:00:00,
2013-02-20 08:06:00,46.2,33.5,29.76,North,-999,-999.0,-999.0,61,-99.99,,,-99.99,,2013-02-20 15:06:00,
2013-02-20 08:12:00,46.4,33.5,29.76,North,-999,-999.0,-999.0,60,-99.99,,,-99.99,,2013-02-20 15:12:00,
2013-02-20 08:18:00,46.5,33.8,29.76,North,-999,-999.0,-999.0,61,-99.99,,,-99.99,,2013-02-20 15:18:00,
2013-02-20 08:24:00,46.7,33.5,29.75,North,-999,-999.0,-999.0,59,-99.99,,,-99.99,,2013-02-20 15:24:00,
2013-02-20 08:30:00,46.8,33.6,29.76,North,-999,-999.0,-999.0,59,-99.99,,,-99.99,,2013-02-20 15:30:00,
2013-02-20 08:36:00,46.9,33.8,29.75,North,-999,-999.0,-999.0,60,-99.99,,,-99.99,,2013-02-20 15:36:00,
2013-02-20 08:42:00,47.6,33.9,29.75,North,-999,-999.0,-999.0,58,-99.99,,,-99.99,,2013-02-20 15:42:00,
2013-02-20 08:48:00,49.6,34.1,29.76,North,-999,-999.0,-999.0,55,-99.99,,,-99.99,,2013-02-20 15:48:00,
2013-02-20 08:54:00,50.8,34.5,29.75,North,-999,-999.0,-999.0,53,-99.99,,,-99.99,,2013-02-20 15:54:00,
2013-02-20 09:00:00,50.5,34.3,29.76,North,-999,-999.0,-999.0,53,-99.99,,,-99.99,,2013-02-20 16:00:00,
2013-02-20 09:06:00,49.4,34.5,29.76,North,-999,-999.0,-999.0,56,-99.99,,,-99.99,,2013-02-20 16:06:00,
2013-02-20 09:12:00,48.7,34.6,29.75,North,-999,-999.0,-999.0,58,-99.99,,,-99.99,,2013-02-20 16:12:00,
2013-02-20 09:18:00,48.3,34.9,29.76,North,-999,-999.0,-999.0,59,-99.99,,,-99.99,,2013-02-20 16:18:00,
2013-02-20 09:24:00,48.2,35.0,29.75,North,-999,-999.0,-999.0,60,-99.99,,,-99.99,,2013-02-20 16:24:00,
2013-02-20 09:30:00,48.2,35.2,29.75,North,-999,-999.0,-999.0,60,-99.99,,,-99.99,,2013-02-20 16:30:00,
2013-02-20 09:36:00,48.0,35.2,29.75,North,-999,-999.0,-999.0,61,-99.99,,,-99.99,,2013-02-20 16:36:00,
2013-02-20 09:42:00,47.9,35.2,29.75,North,-999,-999.0,-999.0,61,-99.99,,,-99.99,,2013-02-20 16:42:00,
2013-02-20 09:48:00,48.0,35.2,29.75,North,-999,-999.0,-999.0,61,-99.99,,,-99.99,,2013-02-20 16:48:00,
2013-02-20 09:54:00,48.2,35.3,29.74,North,-999,-999.0,-999.0,61,-99.99,,,-99.99,,2013-02-20 16:54:00,
2013-02-20 10:00:00,48.1,35.2,29.75,North,-999,-999.0,-999.0,60,-99.99,,,-99.99,,2013-02-20 17:00:00,
2013-02-20 10:06:00,48.2,35.0,29.74,North,-999,-999.0,-999.0,60,-99.99,,,-99.99,,2013-02-20 17:06:00,
2013-02-20 10:12:00,48.4,35.3,29.74,North,-999,-999.0,-999.0,60,-99.99,,,-99.99,,2013-02-20 17:12:00,
2013-02-20 10:18:00,48.8,35.1,29.75,North,-999,-999.0,-999.0,59,-99.99,,,-99.99,,2013-02-20 17:18:00,
2013-02-20 10:24:00,48.8,35.6,29.74,North,-999,-999.0,-999.0,60,-99.99,,,-99.99,,2013-02-20 17:24:00,
2013-02-20 10:30:00,48.2,37.0,29.75,North,-999,-999.0,-999.0,65,-99.99,,,-99.99,,2013-02-20 17:30:00,
2013-02-20 10:36:00,48.3,37.0,29.75,North,-999,-999.0,-999.0,65,-99.99,,,-99.99,,2013-02-20 17:36:00,
2013-02-20 10:42:00,48.4,36.2,29.74,North,-999,-999.0,-999.0,62,-99.99,,,-99.99,,2013-02-20 17:42:00,
2013-02-20 10:48:00,48.5,36.1,29.74,North,-999,-999.0,-999.0,62,-99.99,,,-99.99,,2013-02-20 17:48:00,
2013-02-20 10:54:00,48.7,36.0,29.74,North,-999,-999.0,-999.0,61,-99.99,,,-99.99,,2013-02-20 17:54:00,
2013-02-20 11:00:00,48.7,36.0,29.74,North,-999,-999.0,-999.0,61,-99.99,,,-99.99,,2013-02-20 18:00:00,
2013-02-20 11:06:00,48.4,36.5,29.74,North,-999,-999.0,-999.0,63,-99.99,,,-99.99,,2013-02-20 18:06:00,
2013-02-20 11:12:00,47.9,37.2,29.74,North,-999,-999.0,-999.0,66,-99.99,,,-99.99,,2013-02-20 18:12:00,
2013-02-20 11:18:00,46.6,38.9,29.75,North,-999,-999.0,-999.0,74,-99.99,,,-99.99,,2013-02-20 18:18:00,
2013-02-20 11:24:00,45.2,39.1,29.76,North,-999,-999.0,-999.0,79,-99.99,,,-99.99,,2013-02-20 18:24:00,
2013-02-20 11:30:00,39.9,34.6,29.78,North,-999,-999.0,-999.0,81,-99.99,,,-99.99,,2013-02-20 18:30:00,
2013-02-20 11:36:00,35.1,31.4,29.79,North,-999,-999.0,-999.0,86,-99.99,,,-99.99,,2013-02-20 18:36:00,
2013-02-20 11:42:00,33.9,30.9,29.79,North,-999,-999.0,-999.0,88,-99.99,,,-99.99,,2013-02-20 18:42:00,
2013-02-20 11:48:00,33.6,30.9,29.82,North,-999,-999.0,-999.0,89,-99.99,,,-99.99,,2013-02-20 18:48:00,
2013-02-20 11:54:00,33.4,31.4,29.81,North,-999,-999.0,-999.0,91,-99.99,,,-99.99,,2013-02-20 18:54:00,
2013-02-20 12:00:00,33.4,31.9,29.81,North,-999,-999.0,-999.0,92,-99.99,,,-99.99,,2013-02-20 19:00:00,
2013-02-20 12:06:00,33.3,32.2,29.81,North,-999,-999.0,-999.0,92,-99.99,,,-99.99,,2013-02-20 19:06:00,
2013-02-20 12:12:00,33.3,32.3,29.82,North,-999,-999.0,-999.0,93,-99.99,,,-99.99,,2013-02-20 19:12:00,
2013-02-20 12:18:00,33.3,32.6,29.81,North,-999,-999.0,-999.0,93,-99.99,,,-99.99,,2013-02-20 19:18:00,
2013-02-20 12:24:00,33.5,33.0,29.81,North,-999,-999.0,-999.0,93,-99.99,,,-99.99,,2013-02-20 19:24:00,
2013-02-20 12:30:00,33.7,33.4,29.81,North,-999,-999.0,-999.0,94,-99.99,,,-99.99,,2013-02-20 19:30:00,
2013-02-20 12:36:00,33.9,33.7,29.81,North,-999,-999.0,-999.0,94,-99.99,,,-99.99,,2013-02-20 19:36:00,
2013-02-20 12:42:00,33.8,33.7,29.81,North,-999,-999.0,-999.0,94,-99.99,,,-99.99,,2013-02-20 19:42:00,
2013-02-20 12:48:00,33.8,33.6,29.79,North,-999,-999.0,-999.0,94,-99.99,,,-99.99,,2013-02-20 19:48:00,
2013-02-20 12:54:00,34.1,34.0,29.81,North,-999,-999.0,-999.0,94,-99.99,,,-99.99,,2013-02-20 19:54:00,
2013-02-20 13:00:00,34.6,34.6,29.81,North,-999,-999.0,-999.0,95,-99.99,,,-99.99,,2013-02-20 20:00:00,
2013-02-20 13:06:00,35.0,35.0,29.80,North,-999,-999.0,-999.0,95,-99.99,,,-99.99,,2013-02-20 20:06:00,
2013-02-20 13:12:00,35.4,35.3,29.79,North,-999,-999.0,-999.0,95,-99.99,,,-99.99,,2013-02-20 20:12:00,
2013-02-20 13:18:00,36.0,35.9,29.81,North,-999,-999.0,-999.0,95,-99.99,,,-99.99,,2013-02-20 20:18:00,
2013-02-20 13:24:00,35.8,35.8,29.82,North,-999,-999.0,-999.0,95,-99.99,,,-99.99,,2013-02-20 20:24:00,
2013-02-20 13:30:00,36.1,36.1,29.82,North,-999,-999.0,-999.0,95,-99.99,,,-99.99,,2013-02-20 20:30:00,
2013-02-20 13:36:00,36.3,36.3,29.80,North,-999,-999.0,-999.0,95,-99.99,,,-99.99,,2013-02-20 20:36:00,
2013-02-20 13:42:00,36.7,36.7,29.78,North,-999,-999.0,-999.0,95,-99.99,,,-99.99,,2013-02-20 20:42:00,
2013-02-20 13:48:00,36.9,36.9,29.77,North,-999,-999.0,-999.0,95,-99.99,,,-99.99,,2013-02-20 20:48:00,
2013-02-20 13:54:00,37.3,37.3,29.78,North,-999,-999.0,-999.0,95,-99.99,,,-99.99,,2013-02-20 20:54:00,
2013-02-20 14:00:00,37.2,37.1,29.78,North,-999,-999.0,-999.0,94,-99.99,,,-99.99,,2013-02-20 21:00:00,
2013-02-20 14:06:00,37.1,36.2,29.79,North,-999,-999.0,-999.0,93,-99.99,,,-99.99,,2013-02-20 21:06:00,
2013-02-20 14:12:00,37.0,34.7,29.80,North,-999,-999.0,-999.0,90,-99.99,,,-99.99,,2013-02-20 21:12:00,
2013-02-20 14:18:00,37.3,34.6,29.80,North,-999,-999.0,-999.0,90,-99.99,,,-99.99,,2013-02-20 21:18:00,
2013-02-20 14:24:00,37.4,34.7,29.81,North,-999,-999.0,-999.0,90,-99.99,,,-99.99,,2013-02-20 21:24:00,
2013-02-20 14:30:00,37.5,34.7,29.81,North,-999,-999.0,-999.0,89,-99.99,,,-99.99,,2013-02-20 21:30:00,
2013-02-20 14:36:00,38.2,35.2,29.80,North,-999,-999.0,-999.0,89,-99.99,,,-99.99,,2013-02-20 21:36:00,
2013-02-20 14:42:00,39.6,36.2,29.80,North,-999,-999.0,-999.0,87,-99.99,,,-99.99,,2013-02-20 21:42:00,
2013-02-20 14:48:00,41.3,37.1,29.81,North,-999,-999.0,-999.0,84,-99.99,,,-99.99,,2013-02-20 21:48:00,
2013-02-20 14:54:00,41.4,36.2,29.80,North,-999,-999.0,-999.0,81,-99.99,,,-99.99,,2013-02-20 21:54:00,
2013-02-20 15:00:00,41.3,36.2,29.80,North,-999,-999.0,-999.0,81,-99.99,,,-99.99,,2013-02-20 22:00:00,
2013-02-20 15:06:00,41.7,36.0,29.79,North,-999,-999.0,-999.0,80,-99.99,,,-99.99,,2013-02-20 22:06:00,
2013-02-20 15:12:00,41.5,35.2,29.78,North,-999,-999.0,-999.0,78,-99.99,,,-99.99,,2013-02-20 22:12:00,
2013-02-20 15:18:00,40.9,34.1,29.79,North,-999,-999.0,-999.0,76,-99.99,,,-99.99,,2013-02-20 22:18:00,
2013-02-20 15:24:00,40.9,34.7,29.81,North,-999,-999.0,-999.0,78,-99.99,,,-99.99,,2013-02-20 22:24:00,
2013-02-20 15:30:00,40.8,34.9,29.80,North,-999,-999.0,-999.0,79,-99.99,,,-99.99,,2013-02-20 22:30:00,
2013-02-20 15:36:00,40.2,34.8,29.80,North,-999,-999.0,-999.0,80,-99.99,,,-99.99,,2013-02-20 22:36:00,
2013-02-20 15:42:00,39.9,34.5,29.81,North,-999,-999.0,-999.0,80,-99.99,,,-99.99,,2013-02-20 22:42:00,
2013-02-20 15:48:00,39.8,34.7,29.80,North,-999,-999.0,-999.0,82,-99.99,,,-99.99,,2013-02-20 22:48:00,
2013-02-20 15:54:00,39.5,35.1,29.79,North,-999,-999.0,-999.0,84,-99.99,,,-99.99,,2013-02-20 22:54:00,
2013-02-20 16:00:00,39.0,34.9,29.80,North,-999,-999.0,-999.0,85,-99.99,,,-99.99,,2013-02-20 23:00:00,
2013-02-20 16:06:00,38.9,34.9,29.79,North,-999,-999.0,-999.0,85,-99.99,,,-99.99,,2013-02-20 23:06:00,
2013-02-20 16:12:00,38.7,34.8,29.79,North,-999,-999.0,-999.0,86,-99.99,,,-99.99,,2013-02-20 23:12:00,
2013-02-20 16:18:00,38.6,35.1,29.80,North,-999,-999.0,-999.0,87,-99.99,,,-99.99,,2013-02-20 23:18:00,
2013-02-20 16:24:00,38.7,35.5,29.80,North,-999,-999.0,-999.0,88,-99.99,,,-99.99,,2013-02-20 23:24:00,
2013-02-20 16:30:00,38.7,35.5,29.80,North,-999,-999.0,-999.0,88,-99.99,,,-99.99,,2013-02-20 23:30:00,
2013-02-20 16:36:00,38.5,35.2,29.81,North,-999,-999.0,-999.0,87,-99.99,,,-99.99,,2013-02-20 23:36:00,
2013-02-20 16:42:00,38.5,35.2,29.82,North,-999,-999.0,-999.0,87,-99.99,,,-99.99,,2013-02-20 23:42:00,
2013-02-20 16:48:00,38.4,35.4,29.80,North,-999,-999.0,-999.0,88,-99.99,,,-99.99,,2013-02-20 23:48:00,
2013-02-20 16:54:00,37.6,34.8,29.82,North,-999,-999.0,-999.0,89,-99.99,,,-99.99,,2013-02-20 23:54:00,
2013-02-20 17:00:00,36.5,33.9,29.83,North,-999,-999.0,-999.0,90,-99.99,,,-99.99,,2013-02-21 00:00:00,
2013-02-20 17:06:00,35.1,33.0,29.82,North,-999,-999.0,-999.0,90,-99.99,,,-99.99,,2013-02-21 00:06:00,
2013-02-20 17:12:00,34.5,33.1,29.83,North,-999,-999.0,-999.0,92,-99.99,,,-99.99,,2013-02-21 00:12:00,
2013-02-20 17:18:00,34.6,33.8,29.83,North,-999,-999.0,-999.0,93,-99.99,,,-99.99,,2013-02-21 00:18:00,
2013-02-20 17:24:00,34.7,34.5,29.83,North,-999,-999.0,-999.0,94,-99.99,,,-99.99,,2013-02-21 00:24:00,
2013-02-20 17:30:00,34.6,34.6,29.83,North,-999,-999.0,-999.0,95,-99.99,,,-99.99,,2013-02-21 00:30:00,
2013-02-20 17:36:00,34.9,34.8,29.84,North,-999,-999.0,-999.0,95,-99.99,,,-99.99,,2013-02-21 00:36:00,
2013-02-20 17:42:00,35.2,35.2,29.84,North,-999,-999.0,-999.0,95,-99.99,,,-99.99,,2013-02-21 00:42:00,
2013-02-20 17:48:00,35.3,35.2,29.84,North,-999,-999.0,-999.0,95,-99.99,,,-99.99,,2013-02-21 00:48:00,
2013-02-20 17:54:00,35.5,35.5,29.83,North,-999,-999.0,-999.0,95,-99.99,,,-99.99,,2013-02-21 00:54:00,
2013-02-20 18:00:00,35.8,35.7,29.84,North,-999,-999.0,-999.0,95,-99.99,,,-99.99,,2013-02-21 01:00:00,
2013-02-20 18:06:00,35.9,35.9,29.84,North,-999,-999.0,-999.0,95,-99.99,,,-99.99,,2013-02-21 01:06:00,
2013-02-20 18:12:00,36.2,36.2,29.85,North,-999,-999.0,-999.0,95,-99.99,,,-99.99,,2013-02-21 01:12:00,
2013-02-20 18:18:00,36.2,36.1,29.85,North,-999,-999.0,-999.0,95,-99.99,,,-99.99,,2013-02-21 01:18:00,
2013-02-20 18:24:00,36.0,36.0,29.85,North,-999,-999.0,-999.0,95,-99.99,,,-99.99,,2013-02-21 01:24:00,
2013-02-20 18:30:00,36.0,35.9,29.85,North,-999,-999.0,-999.0,94,-99.99,,,-99.99,,2013-02-21 01:30:00,
2013-02-20 18:36:00,35.8,35.7,29.84,North,-999,-999.0,-999.0,94,-99.99,,,-99.99,,2013-02-21 01:36:00,
2013-02-20 18:42:00,35.9,35.6,29.85,North,-999,-999.0,-999.0,94,-99.99,,,-99.99,,2013-02-21 01:42:00,
2013-02-20 18:48:00,36.2,35.8,29.87,North,-999,-999.0,-999.0,94,-99.99,,,-99.99,,2013-02-21 01:48:00,
2013-02-20 18:54:00,36.4,36.3,29.86,North,-999,-999.0,-999.0,94,-99.99,,,-99.99,,2013-02-21 01:54:00,
2013-02-20 19:00:00,36.3,36.3,29.87,North,-999,-999.0,-999.0,94,-99.99,,,-99.99,,2013-02-21 02:00:00,
2013-02-20 19:06:00,36.1,36.1,29.85,North,-999,-999.0,-999.0,94,-99.99,,,-99.99,,2013-02-21 02:06:00,
2013-02-20 19:12:00,36.2,36.1,29.86,North,-999,-999.0,-999.0,95,-99.99,,,-99.99,,2013-02-21 02:12:00,
2013-02-20 19:18:00,36.0,36.0,29.87,North,-999,-999.0,-999.0,95,-99.99,,,-99.99,,2013-02-21 02:18:00,
2013-02-20 19:24:00,36.0,35.9,29.88,North,-999,-999.0,-999.0,94,-99.99,,,-99.99,,2013-02-21 02:24:00,
2013-02-20 19:30:00,36.0,36.0,29.88,North,-999,-999.0,-999.0,94,-99.99,,,-99.99,,2013-02-21 02:30:00,
2013-02-20 19:36:00,36.1,36.1,29.87,North,-999,-999.0,-999.0,94,-99.99,,,-99.99,,2013-02-21 02:36:00,
2013-02-20 19:42:00,36.1,36.1,29.90,North,-999,-999.0,-999.0,95,-99.99,,,-99.99,,2013-02-21 02:42:00,
2013-02-20 19:48:00,36.2,36.1,29.89,North,-999,-999.0,-999.0,95,-99.99,,,-99.99,,2013-02-21 02:48:00,
2013-02-20 19:54:00,36.1,36.1,29.89,North,-999,-999.0,-999.0,95,-99.99,,,-99.99,,2013-02-21 02:54:00,
2013-02-20 20:00:00,36.4,36.3,29.89,North,-999,-999.0,-999.0,94,-99.99,,,-99.99,,2013-02-21 03:00:00,
2013-02-20 20:06:00,36.5,36.2,29.90,North,-999,-999.0,-999.0,94,-99.99,,,-99.99,,2013-02-21 03:06:00,
2013-02-20 20:12:00,36.4,36.1,29.89,North,-999,-999.0,-999.0,94,-99.99,,,-99.99,,2013-02-21 03:12:00,
2013-02-20 20:18:00,36.4,36.0,29.90,North,-999,-999.0,-999.0,94,-99.99,,,-99.99,,2013-02-21 03:18:00,
2013-02-20 20:24:00,36.5,35.9,29.89,North,-999,-999.0,-999.0,93,-99.99,,,-99.99,,2013-02-21 03:24:00,
2013-02-20 20:30:00,36.4,36.2,29.92,North,-999,-999.0,-999.0,94,-99.99,,,-99.99,,2013-02-21 03:30:00,
2013-02-20 20:36:00,36.0,35.8,29.91,North,-999,-999.0,-999.0,94,-99.99,,,-99.99,,2013-02-21 03:36:00,
2013-02-20 20:42:00,35.4,35.3,29.92,North,-999,-999.0,-999.0,94,-99.99,,,-99.99,,2013-02-21 03:42:00,
2013-02-20 20:48:00,35.4,35.4,29.92,North,-999,-999.0,-999.0,94,-99.99,,,-99.99,,2013-02-21 03:48:00,
2013-02-20 20:54:00,35.5,35.4,29.94,North,-999,-999.0,-999.0,95,-99.99,,,-99.99,,2013-02-21 03:54:00,
2013-02-20 21:00:00,34.8,34.7,29.94,North,-999,-999.0,-999.0,94,-99.99,,,-99.99,,2013-02-21 04:00:00,
2013-02-20 21:06:00,34.4,34.3,29.92,North,-999,-999.0,-999.0,94,-99.99,,,-99.99,,2013-02-21 04:06:00,
2013-02-20 21:12:00,35.1,35.0,29.90,North,-999,-999.0,-999.0,94,-99.99,,,-99.99,,2013-02-21 04:12:00,
2013-02-20 21:18:00,35.5,35.1,29.92,North,-999,-999.0,-999.0,94,-99.99,,,-99.99,,2013-02-21 04:18:00,
2013-02-20 21:24:00,35.7,34.8,29.93,North,-999,-999.0,-999.0,93,-99.99,,,-99.99,,2013-02-21 04:24:00,
2013-02-20 21:30:00,35.9,35.0,29.92,North,-999,-999.0,-999.0,93,-99.99,,,-99.99,,2013-02-21 04:30:00,
2013-02-20 21:36:00,36.0,35.1,29.93,North,-999,-999.0,-999.0,93,-99.99,,,-99.99,,2013-02-21 04:36:00,
2013-02-20 21:42:00,36.2,35.5,29.94,North,-999,-999.0,-999.0,93,-99.99,,,-99.99,,2013-02-21 04:42:00,
2013-02-20 21:48:00,36.2,35.5,29.94,North,-999,-999.0,-999.0,93,-99.99,,,-99.99,,2013-02-21 04:48:00,
2013-02-20 21:54:00,36.0,35.6,29.95,North,-999,-999.0,-999.0,94,-99.99,,,-99.99,,2013-02-21 04:54:00,
2013-02-20 22:00:00,35.6,35.3,29.95,North,-999,-999.0,-999.0,94,-99.99,,,-99.99,,2013-02-21 05:00:00,
2013-02-20 22:06:00,34.9,34.6,29.95,North,-999,-999.0,-999.0,94,-99.99,,,-99.99,,2013-02-21 05:06:00,
2013-02-20 22:12:00,34.6,34.5,29.94,North,-999,-999.0,-999.0,94,-99.99,,,-99.99,,2013-02-21 05:12:00,
2013-02-20 22:18:00,34.5,34.4,29.94,North,-999,-999.0,-999.0,95,-99.99,,,-99.99,,2013-02-21 05:18:00,
2013-02-20 22:24:00,34.7,34.7,29.95,North,-999,-999.0,-999.0,96,-99.99,,,-99.99,,2013-02-21 05:24:00,
2013-02-20 22:30:00,34.9,34.9,29.96,North,-999,-999.0,-999.0,96,-99.99,,,-99.99,,2013-02-21 05:30:00,
2013-02-20 22:36:00,34.8,34.7,29.95,North,-999,-999.0,-999.0,96,-99.99,,,-99.99,,2013-02-21 05:36:00,
2013-02-20 22:42:00,34.8,34.8,29.97,North,-999,-999.0,-999.0,96,-99.99,,,-99.99,,2013-02-21 05:42:00,
2013-02-20 22:48:00,34.8,34.8,29.96,North,-999,-999.0,-999.0,97,-99.99,,,-99.99,,2013-02-21 05:48:00,
2013-02-20 22:54:00,34.7,34.6,29.95,North,-999,-999.0,-999.0,97,-99.99,,,-99.99,,2013-02-21 05:54:00,
2013-02-20 23:00:00,34.2,34.2,29.96,North,-999,-999.0,-999.0,97,-99.99,,,-99.99,,2013-02-21 06:00:00,
2013-02-20 23:06:00,33.8,33.8,29.96,North,-999,-999.0,-999.0,97,-99.99,,,-99.99,,2013-02-21 06:06:00,
2013-02-20 23:12:00,33.9,33.8,29.95,North,-999,-999.0,-999.0,97,-99.99,,,-99.99,,2013-02-21 06:12:00,
2013-02-20 23:18:00,34.2,34.2,29.96,North,-999,-999.0,-999.0,97,-99.99,,,-99.99,,2013-02-21 06:18:00,
2013-02-20 23:24:00,34.8,34.7,29.94,North,-999,-999.0,-999.0,97,-99.99,,,-99.99,,2013-02-21 06:24:00,
2013-02-20 23:30:00,34.8,34.8,29.95,North,-999,-999.0,-999.0,97,-99.99,,,-99.99,,2013-02-21 06:30:00,
2013-02-20 23:36:00,34.8,34.7,29.96,North,-999,-999.0,-999.0,97,-99.99,,,-99.99,,2013-02-21 06:36:00,
2013-02-20 23:42:00,34.8,34.7,29.96,North,-999,-999.0,-999.0,97,-99.99,,,-99.99,,2013-02-21 06:42:00,
2013-02-20 23:48:00,34.9,34.8,29.95,North,-999,-999.0,-999.0,97,-99.99,,,-99.99,,2013-02-21 06:48:00,
2013-02-20 23:54:00,35.0,34.9,29.96,North,-999,-999.0,-999.0,97,-99.99,,,-99.99,,2013-02-21 06:54:00,